Probability
0 0 0 0 0 0 0 0 0 0 0 0 0 0 0 0 0 0 0 0 0 0 0 0 0 0 0 0 0 0 0 0 0 0 0 0 0 0 0 0 0 0 0
0 0 0 0 0 0 0 0 0 0 0 0 0 0 0 0 0 0 0 0 0 0 0 0 0 0 0 0 0 0 0 0 0 0 0 0 0 0 0 0 0 0 0
0 0 0 0 0 0 0 0 0 0 0 0 0 0 0 0 0 0 0 0 0 0 0 0 0 0 0 0 0 0 0 0 0 0 0 0 0 0 0 0 0 0 0
0 0 0 0 0 0 0 0 0 0 0 0 0 0 0 0 0 0 0 0 0 0 0 0 0 0 0 0 0 0 0 0 0 0 0 0 0 0 0 0 0 0 0
0 0 0 0 0 0 0 0 0 0 0 0 0 0 0 0 0 0 0 0 0 0 0 0 0 0 0 0 0 0 0 0 0 0 0 0 0 0 0 0 0 0 0
0 0 0 0 0 0 0 0 0 0 0 0 0 0 0 0 0 0 0 0 0 0 0 0 0 0 0 0 0 0 0 0 0 0 0 0 0 0 0 0 0 0 0
0 0 0 0 0 0 0 0 0 0 0 0 0 0 0 0 0 0 0 0 0 0 0 0 0 0 0 0 0 0 0 0 0 0 0 0 0 0 0 0 0 0 0
0 0 0 0 0 0 0 0 0 0 0 1 2 1 0 0 0 0 0 0 0 0 0 0 0 0 0 0 0 0 0 0 0 0 0 0 0 0 0 0 0 0 0
0 0 0 0 0 0 0 0 0 0 0 1 3 3 1 0 0 0 0 0 0 0 0 0 0 0 0 0 0 0 0 0 0 0 0 0 0 0 0 0 0 0 0
0 0 0 0 0 0 0 0 0 1 1 1 2 3 1 0 0 0 0 0 0 0 0 0 0 0 0 0 0 0 0 0 0 0 0 0 0 0 0 0 0 0 0
0 0 0 0 0 0 0 0 0 1 2 1 1 1 1 0 0 0 0 0 0 0 0 0 0 0 0 0 0 0 0 0 0 0 0 0 0 0 0 0 0 0 0
0 0 0 0 0 0 0 0 0 1 2 2 2 2 1 0 0 0 0 0 0 0 0 0 0 0 0 0 0 0 0 0 0 0 0 0 0 0 0 0 0 0 0
0 0 0 0 0 0 0 0 0 0 1 2 2 2 1 0 0 0 0 0 0 0 0 0 0 0 0 0 0 0 0 0 0 0 0 0 0 0 0 0 0 0 0
0 0 0 0 0 0 0 0 0 0 0 1 1 1 0 0 0 0 0 0 0 0 0 0 0 0 0 0 0 0 0 0 0 0 0 0 0 0 0 0 0 0 0
0 0 0 0 0 0 0 0 0 0 0 0 0 0 0 0 0 0 0 0 0 0 0 0 0 0 0 0 0 0 0 0 0 0 0 0 0 0 0 0 0 0 0
0 0 0 0 0 0 0 0 0 0 0 0 0 0 0 0 0 0 0 0 0 0 0 0 0 0 0 0 0 0 0 0 0 0 0 0 0 0 0 0 0 0 0
0 0 0 0 0 0 0 0 0 0 0 0 0 0 0 0 0 0 0 0 0 0 0 0 0 0 0 0 0 0 0 0 0 0 0 0 0 0 0 0 0 0 0
0 0 0 0 0 0 0 0 0 0 0 0 0 0 0 0 0 0 0 0 0 0 0 0 0 0 0 0 0 0 0 0 0 0 0 0 0 0 0 0 0 0 0
0 0 0 0 0 0 0 0 0 0 0 0 0 0 0 0 0 0 0 0 0 0 0 0 0 0 0 0 0 0 0 0 0 0 0 0 0 0 0 0 0 0 0
0 0 0 0 0 0 0 0 0 0 0 0 0 0 0 0 0 0 0 0 0 0 0 0 0 0 0 0 0 0 0 0 0 0 0 0 0 0 0 0 0 0 0
0 0 0 0 0 0 0 0 0 0 0 0 0 0 0 0 0 0 0 0 0 0 0 0 0 0 0 0 0 0 0 0 0 0 0 0 0 0 0 0 0 0 0
0 0 0 0 0 0 0 0 0 0 0 0 0 0 0 0 0 0 0 0 0 0 0 0 0 0 0 0 0 0 0 0 0 0 0 0 0 0 0 0 0 0 0
0 0 0 0 0 0 0 0 0 0 0 0 0 0 0 0 0 0 0 0 0 0 0 0 0 0 0 0 0 0 0 0 0 0 0 0 0 0 0 0 0 0 0
0 0 0 0 0 0 0 0 0 0 0 0 0 0 0 0 0 0 0 0 0 0 0 0 0 0 0 0 0 0 0 0 0 0 0 0 0 0 0 0 0 0 0
0 0 0 0 0 0 0 0 0 0 0 0 0 0 0 0 0 0 0 0 0 0 0 0 0 0 0 0 0 0 0 0 0 0 0 0 0 0 0 0 0 0 0
0 0 0 0 0 0 0 0 0 0 0 0 0 0 0 0 0 0 0 0 0 0 0 0 0 0 0 0 0 0 0 0 0 0 0 0 0 0 0 0 0 0 0
Wind_Speed
10 8 7 7 7 8 9 10 11 10 8 7 7 7 8 7 6 6 7 8 8 8 8 6 6 6 6 6 6 4 4 4 2 2 3 4 4 4 3 3 2 2 2
8 7 7 7 8 9 10 10 11 10 10 9 7 5 4 4 5 4 6 7 8 8 7 8 6 6 5 6 6 5 3 3 3 2 2 3 3 2 2 1 1 1 1
11 8 7 8 8 9 10 9 11 10 10 9 4 3 3 2 3 5 6 7 8 7 7 7 7 6 6 6 6 6 6 4 3 4 3 2 3 3 2 1 0 0 0
10 9 8 7 8 9 8 9 9 9 9 9 8 9 8 8 8 5 4 4 5 6 6 6 6 6 6 6 6 6 5 5 4 3 4 4 3 2 3 1 1 1 1
9 9 8 7 6 6 6 6 7 7 7 9 11 10 9 7 4 3 4 4 4 5 5 6 5 5 5 6 5 5 6 5 5 4 3 4 4 4 4 4 2 1 1
6 5 4 3 4 3 4 5 5 6 6 8 9 11 11 9 6 5 5 4 3 3 4 5 5 5 5 5 5 5 6 5 5 4 4 3 3 3 4 5 4 3 1
4 3 3 2 3 3 3 4 5 5 6 7 8 9 10 9 9 7 6 5 4 4 5 5 5 4 5 5 4 4 5 5 5 5 4 4 3 2 3 4 3 3 2
2 2 3 2 2 2 2 2 3 4 4 6 7 7 7 6 5 6 5 5 4 4 3 4 4 4 4 4 4 4 4 3 4 4 4 3 2 2 3 3 3 3 2
2 2 2 2 2 2 1 1 2 3 3 4 5 5 6 5 5 4 4 3 3 2 3 3 4 4 4 4 4 3 3 3 3 3 3 3 2 2 2 2 3 4 4
3 3 2 2 2 2 2 1 1 2 2 2 3 3 4 5 4 4 4 3 3 3 3 2 3 3 3 3 3 2 2 3 2 2 2 2 2 1 1 2 2 3 4
3 4 4 3 3 3 3 2 1 0 0 1 2 2 2 3 3 3 3 3 3 3 3 3 3 2 2 2 2 3 2 3 2 2 2 2 2 1 1 1 1 2 3
3 2 2 3 3 3 3 2 2 2 1 1 2 2 2 2 3 2 2 2 2 2 2 3 3 2 2 1 2 2 2 2 2 2 2 2 1 1 1 1 1 1 1
3 3 2 2 2 3 3 3 2 2 2 1 2 2 2 2 2 2 2 2 2 2 2 2 2 2 2 2 2 2 2 1 1 1 1 1 1 1 0 1 1 1 0
3 3 3 3 2 2 2 2 2 2 2 2 2 2 2 2 2 2 2 3 3 3 2 2 2 2 2 3 3 3 3 2 2 2 2 1 1 1 0 0 0 0 0
4 4 3 3 3 2 2 2 1 2 2 2 2 2 2 3 3 3 3 3 3 3 2 3 3 2 2 2 3 3 3 3 3 3 3 3 3 3 2 1 1 1 0
5 5 4 3 3 2 2 1 1 1 2 2 2 2 3 3 3 3 3 3 3 3 3 3 3 3 2 4 4 4 3 3 3 3 3 3 3 4 5 5 4 2 0
6 6 5 4 3 2 1 1 0 1 2 2 2 2 3 3 2 3 3 3 3 4 4 3 3 3 4 5 5 6 4 3 3 3 2 2 3 3 3 5 6 5 4
5 5 4 4 3 1 1 0 1 1 2 2 1 1 2 2 3 3 3 3 3 3 3 3 3 3 4 5 6 7 5 4 4 3 3 3 3 3 3 3 4 4 4
5 4 4 3 2 1 1 2 2 2 1 1 1 1 2 2 2 2 2 3 3 3 3 3 3 3 3 5 6 6 4 4 4 4 3 3 3 4 5 4 3 3 4
3 3 2 1 1 1 2 3 2 2 2 1 1 1 1 2 2 2 2 2 3 3 3 3 3 3 3 4 5 5 3 4 3 3 3 4 4 5 5 3 3 2 2
3 2 2 1 1 1 2 2 2 2 1 1 1 1 1 2 2 3 3 3 3 3 3 3 3 2 2 4 5 5 3 3 3 2 2 3 5 5 5 4 3 2 2
3 1 1 2 1 1 2 2 2 1 2 2 2 2 2 2 2 3 3 3 4 4 3 3 2 2 2 3 4 5 4 4 3 2 2 3 5 5 5 4 5 5 4
3 1 1 2 1 1 2 2 1 2 2 2 2 2 2 2 2 3 3 3 3 3 3 3 2 1 1 2 4 5 5 5 3 3 4 5 6 5 4 6 6 4 3
3 2 1 2 2 1 1 1 1 2 3 3 2 2 2 2 2 2 2 3 3 3 3 3 3 2 1 2 2 2 3 4 4 4 4 6 7 6 6 5 4 3 2
3 2 2 3 3 1 1 1 2 3 3 3 3 2 2 2 2 2 1 2 2 3 4 3 3 3 2 2 3 3 2 2 3 4 3 3 3 3 3 3 3 3 2
3 2 3 3 2 1 2 1 2 3 4 3 3 2 2 2 2 2 2 2 2 3 4 4 4 2 3 4 4 5 5 5 7 5 3 2 2 2 1 2 2 2 2
Wind_Direction
246 244 233 225 219 213 209 208 205 203 191 188 195 201 211 211 210 212 210 208 208 205 207 213 211 207 214 219 214 216 223 229 212 256 288 276 259 255 258 255 255 274 284
255 246 235 223 217 215 213 210 208 202 197 200 196 193 189 199 206 206 209 210 209 207 207 210 212 210 215 219 214 209 213 215 187 199 271 307 323 315 279 273 263 286 339
246 246 237 229 219 218 215 211 209 205 202 196 173 158 157 165 191 207 213 214 210 209 209 210 212 211 211 220 218 210 213 226 209 199 208 244 268 306 311 329 3 8 24
242 242 237 233 221 221 217 213 209 205 200 189 185 190 198 207 213 209 207 199 200 207 210 210 210 215 216 222 220 213 215 217 225 211 216 224 208 247 296 301 344 36 7
240 240 236 231 227 220 211 208 205 205 199 193 194 195 206 214 204 180 185 195 197 204 209 209 211 217 221 225 223 217 217 217 223 215 203 221 228 224 245 270 275 324 309
250 247 246 231 235 229 211 201 193 205 201 194 195 198 204 204 191 188 196 200 200 205 211 208 211 217 221 224 224 219 218 220 221 221 212 204 211 215 226 249 265 265 254
258 261 261 250 243 236 223 205 192 206 203 192 195 199 204 202 201 199 200 197 201 211 216 208 212 217 222 222 217 213 217 217 214 218 223 220 225 217 219 238 256 264 258
288 278 271 257 254 248 231 202 193 208 204 194 197 199 200 200 203 202 196 197 204 210 205 200 205 211 214 214 212 212 217 210 210 212 211 212 221 220 219 221 230 260 262
294 294 306 311 308 294 270 222 199 202 204 199 194 192 191 191 192 191 192 193 194 190 188 189 196 206 209 209 205 208 207 197 202 203 202 212 222 219 226 229 224 232 256
328 339 339 332 336 337 335 334 210 207 209 196 193 185 188 186 184 177 177 182 184 174 171 176 187 199 202 198 194 195 195 187 195 191 188 207 219 221 225 226 237 236 243
333 333 341 352 2 10 16 11 3 34 146 167 172 165 169 165 166 169 176 180 170 165 167 172 172 177 182 185 181 188 178 183 194 190 188 204 195 205 232 225 228 241 241
333 327 332 351 3 3 4 10 12 26 25 129 151 157 155 145 148 159 162 154 155 158 163 163 158 156 162 159 160 177 179 183 188 190 183 206 198 203 222 215 224 243 248
327 331 338 342 343 349 350 352 2 16 26 57 102 111 113 121 132 137 131 126 131 126 123 132 145 148 150 145 146 150 134 127 131 133 157 181 165 196 237 207 221 245 261
313 313 318 324 327 331 334 336 347 15 45 63 90 101 100 110 115 109 104 104 111 114 114 118 124 127 127 122 120 117 115 111 95 86 87 83 89 97 80 11 298 20 17
295 292 298 307 315 326 332 334 351 31 56 72 80 85 88 91 93 95 95 92 91 97 104 108 104 101 110 112 118 122 122 119 104 82 72 70 68 66 63 53 37 58 58
281 288 291 293 293 290 298 321 341 26 72 87 88 81 84 87 90 95 98 99 94 89 88 89 95 86 80 98 108 112 115 115 110 97 82 76 72 70 70 65 56 54 39
276 274 272 268 266 263 252 254 284 73 96 100 91 91 100 101 97 99 100 100 98 93 86 80 79 75 77 85 93 97 99 96 93 95 92 75 60 60 75 68 57 48 47
277 279 280 279 277 266 242 149 101 109 121 119 116 107 113 113 108 112 113 110 108 104 96 86 83 80 79 84 92 94 91 90 84 81 83 86 67 53 73 75 64 47 37
266 274 275 266 249 219 187 143 130 127 136 154 150 135 126 120 114 114 111 110 109 103 100 97 91 93 92 91 94 94 98 95 86 80 76 83 81 72 80 84 77 57 38
286 293 306 287 221 229 172 154 162 160 181 195 171 136 139 142 139 134 120 115 119 114 106 96 88 96 99 100 97 93 101 102 95 85 78 77 81 75 76 80 85 71 34
295 304 308 263 243 209 170 172 171 192 176 128 123 125 133 143 142 129 125 125 119 111 105 100 83 81 94 105 97 93 98 113 111 98 82 77 79 73 70 71 71 81 75
291 296 296 284 280 160 160 195 203 163 114 117 119 123 127 134 138 134 127 127 129 125 121 112 92 72 78 97 99 92 96 106 108 106 92 89 84 75 70 68 72 74 74
278 275 260 280 291 184 174 207 214 127 129 127 133 128 115 114 131 136 137 135 137 142 147 138 131 111 85 98 97 91 92 94 92 98 103 92 84 73 65 70 67 63 62
270 262 249 255 264 259 223 203 162 153 148 151 155 145 137 126 118 127 142 152 158 159 160 158 155 142 116 103 96 94 93 95 93 90 90 87 81 75 67 57 52 46 44
282 261 246 250 256 256 247 189 166 164 162 162 159 148 141 138 131 128 149 167 181 178 175 171 165 159 158 139 126 119 109 113 114 105 81 67 67 61 51 47 44 40 37
287 275 265 258 254 234 232 208 183 175 168 166 161 156 155 151 147 138 105 105 114 133 146 142 138 130 137 140 132 119 120 124 127 110 106 99 87 83 70 53 33 25 21